Air Resources Laboratory banner image
Air Resources Laboratory web site National Oceanic and Atmospheric Administration (NOAA)

dc zone


SCZ050-WAZ558-NCZ071-TXZ119-213-PAZ071-DCZ001-FLZ074-172-MI076-
NYZ176-178-MAZ016-IL014-TNZ027-NJZ106-GAZ044-MD014-220200-

...Gateway Observations for Charleston International...

CITY           SKY/WX    TMP DP  RH WIND       PRES   REMARKS
Chas Airport   FAIR      50  41  71 CALM      30.23R
Seattle        PTCLDY    53  46  77 CALM      29.99S
Charlotte      FAIR      48  36  63 CALM      30.23S
Dallas DFW     PTCLDY    60  39  45 E5        30.22R
Dallas Love    MOCLDY    59  44  57 E6        30.23R
Philladelphia  FAIR      44  26  49 NW13      30.19R
Wash National  FAIR      47  29  49 NW12      30.24R
Baltimore      FAIR      43  32  65 W10       30.21R
Miami          CLOUDY    80  73  79 NE9       30.02R
Detroit        MOCLDY    39  29  67 S7        30.16S WCI  34
Newark         FAIR      41  24  51 W5        30.15R
Laguardia      FAIR      44  25  47 NW15G24   30.14R
J F K          FAIR      42  24  49 NW15G23   30.16R
Boston Logan   FAIR      40  19  43 NW12G20   30.03R WCI  33
Ft. Lauderdale FAIR      78  74  87 N7        30.01R
Chicago O'Hare FAIR      47  23  38 SW10      30.09F
Chicago Midway FAIR      47  23  38 SW9       30.11F
Houston Bush   MOCLDY    63  53  70 N6        30.18R
Houston Hobby  MOCLDY    66  49  54 NE6       30.17R
Nashville      FAIR      45  34  65 CALM      30.29S
Atlanta        FAIR      53  36  52 N9        30.22R


GAZ044-118-TXZ119-213-NCZ071-DCZ001-MDZ014-506-PAZ021-071-NJZ106-
NYZ176-178-MAZ106-OHZ011-021-055-MIZ076-KYZ091-ILZ014-INZ047-
MNZ060-ONZ431-220200-

...Gateway Observations for Savannah International...

CITY           SKY/WX    TMP DP  RH WIND       PRES   REMARKS
Savannah Arpt  FAIR      52  45  77 N3        30.24R
Atlanta        FAIR      53  36  52 N9        30.22R
Charlotte      FAIR      48  36  63 CALM      30.23S
Dallas DFW     PTCLDY    60  39  45 E5        30.22R
Houston Bush   MOCLDY    63  53  70 N6        30.18R
Wash National  FAIR      47  29  49 NW12      30.24R
Wash Dulles    FAIR      42  30  62 NW7       30.25R
Baltimore      FAIR      43  32  65 W10       30.21R
Philadelphia   FAIR      44  26  49 NW13      30.19R
Newark         FAIR      41  24  51 W5        30.15R
Laguardia      FAIR      44  25  47 NW15G24   30.14R
J F K          FAIR      42  24  49 NW15G23   30.16R
Boston         FAIR      40  19  43 NW12G20   30.03R WCI  33
Pittsburg      FAIR      35  30  82 CALM      30.24S
Akron          FAIR      34  27  75 S7        30.22S WCI  28
Cleveland      FAIR      35  30  82 S8        30.21F WCI  29
Cincinnati     FAIR      39  32  76 S6        30.24F WCI  35
Columbus       FAIR      38  29  70 SW6       30.24F WCI  33
Detroit        MOCLDY    39  29  67 S7        30.16S WCI  34
Chicago O'Hare FAIR      47  23  38 SW10      30.09F
Minneapolis    FAIR      50  34  54 NW6       29.99R
Indianapolis   FAIR      41  28  60 SW9       30.21F
Toronto Canada CLOUDY    39  27  60 W12       30.14R WCI  32


SCZ050-WAZ558-NCZ071-TXZ119-213-PAZ071-DCZ001-FLZ074-172-MI076-
NYZ176-178-MAZ016-IL014-TNZ027-NJZ106-GAZ044-MD014-220200-

...Gateway Observations for Charleston International...

CITY           SKY/WX    TMP DP  RH WIND       PRES   REMARKS
Chas Airport   FAIR      50  41  71 CALM      30.23R
Seattle        PTCLDY    53  46  77 CALM      29.99S
Charlotte      FAIR      48  36  63 CALM      30.23S
Dallas DFW     PTCLDY    60  39  45 E5        30.22R
Dallas Love    MOCLDY    59  44  57 E6        30.23R
Philladelphia  FAIR      44  26  49 NW13      30.19R
Wash National  FAIR      47  29  49 NW12      30.24R
Baltimore      FAIR      43  32  65 W10       30.21R
Miami          CLOUDY    80  73  79 NE9       30.02R
Detroit        MOCLDY    39  29  67 S7        30.16S WCI  34
Newark         FAIR      41  24  51 W5        30.15R
Laguardia      FAIR      44  25  47 NW15G24   30.14R
J F K          FAIR      42  24  49 NW15G23   30.16R
Boston Logan   FAIR      40  19  43 NW12G20   30.03R WCI  33
Ft. Lauderdale FAIR      78  74  87 N7        30.01R
Chicago O'Hare FAIR      47  23  38 SW10      30.09F
Chicago Midway FAIR      47  23  38 SW9       30.11F
Houston Bush   MOCLDY    63  53  70 N6        30.18R
Houston Hobby  MOCLDY    66  49  54 NE6       30.17R
Nashville      FAIR      45  34  65 CALM      30.29S
Atlanta        FAIR      53  36  52 N9        30.22R


GAZ044-118-TXZ119-213-NCZ071-DCZ001-MDZ014-506-PAZ021-071-NJZ106-
NYZ176-178-MAZ106-OHZ011-021-055-MIZ076-KYZ091-ILZ014-INZ047-
MNZ060-ONZ431-220200-

...Gateway Observations for Savannah International...

CITY           SKY/WX    TMP DP  RH WIND       PRES   REMARKS
Savannah Arpt  FAIR      52  45  77 N3        30.24R
Atlanta        FAIR      53  36  52 N9        30.22R
Charlotte      FAIR      48  36  63 CALM      30.23S
Dallas DFW     PTCLDY    60  39  45 E5        30.22R
Houston Bush   MOCLDY    63  53  70 N6        30.18R
Wash National  FAIR      47  29  49 NW12      30.24R
Wash Dulles    FAIR      42  30  62 NW7       30.25R
Baltimore      FAIR      43  32  65 W10       30.21R
Philadelphia   FAIR      44  26  49 NW13      30.19R
Newark         FAIR      41  24  51 W5        30.15R
Laguardia      FAIR      44  25  47 NW15G24   30.14R
J F K          FAIR      42  24  49 NW15G23   30.16R
Boston         FAIR      40  19  43 NW12G20   30.03R WCI  33
Pittsburg      FAIR      35  30  82 CALM      30.24S
Akron          FAIR      34  27  75 S7        30.22S WCI  28
Cleveland      FAIR      35  30  82 S8        30.21F WCI  29
Cincinnati     FAIR      39  32  76 S6        30.24F WCI  35
Columbus       FAIR      38  29  71 SW5       30.24S WCI  34
Detroit        MOCLDY    39  29  67 S7        30.16S WCI  34
Chicago O'Hare FAIR      47  23  38 SW10      30.09F
Minneapolis    FAIR      50  34  54 NW6       29.99R
Indianapolis   FAIR      41  28  60 SW9       30.21F
Toronto Canada CLOUDY    39  27  60 W12       30.14R WCI  32




FEUS71 KLWX 212317 EOLLWX Baltimore and Washington DC Enhanced Metro Forecast/Outlook National Weather Service Baltimore MD/Washington DC 717 PM EDT Sun Oct 21 2018 DCZ001-MDZ004-013-016-503-504-VAZ052>054-506-220300- Washington DC Greater Metropolitan Area Forecast ...FREEZE WARNING IN EFFECT FROM MIDNIGHT TONIGHT TO 10 AM EDT MONDAY... .TONIGHT...Mostly clear. Areas of frost after midnight. Cold with lows in the upper 30s in the downtown areas...lower 30s in the suburbs. West winds 5 to 10 mph. .MONDAY...Areas of frost in the morning. Mostly sunny. Highs in the upper 50s. Southwest winds 5 to 10 mph. .MONDAY NIGHT...Partly cloudy. Lows in the lower 40s. Southwest winds 5 to 10 mph. .TUESDAY...Mostly sunny. Highs in the mid 60s. West winds 5 to 10 mph. .TUESDAY NIGHT...Partly cloudy in the evening, then becoming mostly clear. Lows in the lower 40s. Northwest winds 5 to 10 mph. .WEDNESDAY...Sunny. Highs in the mid 50s. .WEDNESDAY NIGHT...Mostly clear. Cold with lows in the mid 30s. .THURSDAY...Sunny. Highs around 50. .THURSDAY NIGHT...Partly cloudy. Cold with lows in the mid 30s. .FRIDAY...Mostly sunny. Highs in the lower 50s. .FRIDAY NIGHT...Mostly cloudy. Lows in the upper 30s. .SATURDAY...Partly sunny with a 30 percent chance of showers. Highs in the mid 50s. .SATURDAY NIGHT...Mostly cloudy with a 50 percent chance of showers. Lows in the mid 40s. .SUNDAY...Mostly cloudy with a 50 percent chance of showers. Highs in the mid 50s. $$ MDZ005-011-014-505>508-220300- Baltimore Greater Metropolitan Area Forecast ...FROST ADVISORY IN EFFECT FROM MIDNIGHT TONIGHT TO 10 AM EDT MONDAY... .TONIGHT...Mostly clear. Areas of frost after midnight. Cold with lows in the upper 30s in the downtown areas...mid 30s in the suburbs. West winds 5 to 10 mph. .MONDAY...Areas of frost in the morning. Mostly sunny. Highs in the mid 50s. Southwest winds 5 to 10 mph with gusts up to 20 mph. .MONDAY NIGHT...Mostly cloudy in the evening, then becoming partly cloudy. Lows in the lower 40s. Southwest winds 5 to 10 mph. .TUESDAY...Mostly sunny. Highs in the lower 60s. West winds 10 to 15 mph. .TUESDAY NIGHT...Partly cloudy in the evening, then becoming mostly clear. Lows in the lower 40s. Northwest winds 5 to 10 mph with gusts up to 20 mph. .WEDNESDAY...Sunny. Highs in the mid 50s. .WEDNESDAY NIGHT...Mostly clear. Cold with lows in the mid 30s. .THURSDAY...Sunny. Highs in the upper 40s. .THURSDAY NIGHT...Partly cloudy. Cold with lows in the mid 30s. .FRIDAY...Mostly sunny. Highs in the lower 50s. .FRIDAY NIGHT...Mostly cloudy. Lows in the upper 30s. .SATURDAY...Partly sunny with a 30 percent chance of showers. Highs in the mid 50s. .SATURDAY NIGHT...Mostly cloudy with a 50 percent chance of showers. Lows in the lower 40s. .SUNDAY...Mostly cloudy with a 50 percent chance of showers. Highs in the mid 50s. $$ FEUS71 KLWX 212337 EOLLWX Baltimore and Washington DC Enhanced Metro Forecast/Outlook National Weather Service Baltimore MD/Washington DC 736 PM EDT Sun Oct 21 2018 DCZ001-MDZ004-013-016-503-504-VAZ052>054-506-220300- Washington DC Greater Metropolitan Area Forecast ...FREEZE WARNING IN EFFECT FROM MIDNIGHT TONIGHT TO 10 AM EDT MONDAY... .TONIGHT...Mostly clear. Areas of frost after midnight. Cold with lows in the upper 30s in the downtown areas...lower 30s in the suburbs. West winds 5 to 10 mph. .MONDAY...Areas of frost in the morning. Mostly sunny. Highs in the upper 50s. Southwest winds 5 to 10 mph. .MONDAY NIGHT...Partly cloudy. Lows in the lower 40s. Southwest winds 5 to 10 mph. .TUESDAY...Mostly sunny. Highs in the mid 60s. West winds 5 to 10 mph. .TUESDAY NIGHT...Partly cloudy in the evening, then becoming mostly clear. Lows in the lower 40s. Northwest winds 5 to 10 mph. .WEDNESDAY...Sunny. Highs in the mid 50s. .WEDNESDAY NIGHT...Mostly clear. Cold with lows in the mid 30s. .THURSDAY...Sunny. Highs around 50. .THURSDAY NIGHT...Partly cloudy. Cold with lows in the mid 30s. .FRIDAY...Mostly sunny. Highs in the lower 50s. .FRIDAY NIGHT...Mostly cloudy. Lows in the upper 30s. .SATURDAY...Partly sunny with a 30 percent chance of showers. Highs in the mid 50s. .SATURDAY NIGHT...Mostly cloudy with a 50 percent chance of showers. Lows in the mid 40s. .SUNDAY...Mostly cloudy with a 50 percent chance of showers. Highs in the mid 50s. $$ MDZ005-011-014-505>508-220300- Baltimore Greater Metropolitan Area Forecast ...FROST ADVISORY IN EFFECT FROM MIDNIGHT TONIGHT TO 10 AM EDT MONDAY... .TONIGHT...Mostly clear. Areas of frost after midnight. Cold with lows in the upper 30s in the downtown areas...mid 30s in the suburbs. West winds 5 to 10 mph. .MONDAY...Areas of frost in the morning. Mostly sunny. Highs in the mid 50s. Southwest winds 5 to 10 mph with gusts up to 20 mph. .MONDAY NIGHT...Mostly cloudy in the evening, then becoming partly cloudy. Lows in the lower 40s. Southwest winds 5 to 10 mph. .TUESDAY...Mostly sunny. Highs in the lower 60s. West winds 10 to 15 mph. .TUESDAY NIGHT...Partly cloudy in the evening, then becoming mostly clear. Lows in the lower 40s. Northwest winds 5 to 10 mph with gusts up to 20 mph. .WEDNESDAY...Sunny. Highs in the mid 50s. .WEDNESDAY NIGHT...Mostly clear. Cold with lows in the mid 30s. .THURSDAY...Sunny. Highs in the upper 40s. .THURSDAY NIGHT...Partly cloudy. Cold with lows in the mid 30s. .FRIDAY...Mostly sunny. Highs in the lower 50s. .FRIDAY NIGHT...Mostly cloudy. Lows in the upper 30s. .SATURDAY...Partly sunny with a 30 percent chance of showers. Highs in the mid 50s. .SATURDAY NIGHT...Mostly cloudy with a 50 percent chance of showers. Lows in the lower 40s. .SUNDAY...Mostly cloudy with a 50 percent chance of showers. Highs in the mid 50s. $$